Find Starlink 32255

NORAD ID: 60417 Int'l Des: 2024-141 Owner: SPXS Country: US Constellation: starlink operational
LEOCIRCULAR

現在のビュー

3D地球を読み込み中...

About Starlink 32255

Starlink 32255 (NORAD 60417) is a starlink constellation satellite (v2 mini) launched Aug 10, 2024 by SPXS of US. It operates in LEO, CIRCULAR orbit with a mass of 730.00 kg.

Starlink 32255について

説明を読み込み中...

次回通過

Passes for default location (London). Set your location on the main map for personalized predictions.

高度履歴

Loading altitude history...

軌道要素

1 60417U 24141V 26170.16243818 -.00002085 00000-0 -50599-4 0 9998
2 60417 53.1599 130.0422 0001350 94.0732 266.0425 15.34386001105134
Epoch: Jun 19, 2026 • Age: 25 hours

現在のステータス

高度 481.9 km
速度 7.62 km/s
衛星直下点 -52.46°S, 72.62°E
打ち上げ日 Aug 10, 2024
運用期間 1.8 years
タイプ internet

技術仕様

分類 Payload
質量 730.00 kg
乾燥質量 700.00 kg
総質量 730.00 kg
長さ 0.30 m
直径 4.10 m
スパン 29.00 m
形状 Box + pan
製造者 SPXS
バスタイプ Starlink V2M
フェーズステータス In Orbit
所有者/国 SPXS/US

Most Searched